[[{"header":{"parameterUnit":"m.s-1","parameterCategory":2,"la1":30.2991,"la2":30.254,"lo1":-89.0895,"lo2":-89.0444,"dy":0.0017,"dx":0.0017,"nx":28,"ny":28,"refTime":"2024-02-11T09:00:00:Z","depth":"0","parameterNumber":2,"parameterNumberName":"U-component_of_CURRENTS"},"data":[0,0,0,0,0,0,0,0,0,0,0,0,0,0,0,0,0,0,0,0,0,0,0,0,0,0,0,0,0,0,0,0,0,0,0,0,0,0,0,0,0,0,0,0,0,0,0,0,0,0,0,0,0,0,0,0,0,0,0.2018,0.2018,0,0.2006,0.2006,0.2006,0.1994,0.1994,0.1994,0.1994,0.1976,0.1975,0.1975,0,0,0,0,0,0,0,0,0,0,0,0,0,0.205,0.2049,0.2018,0.2018,0.2017,0.2006,0.2006,0.2006,0.1994,0.1994,0.1994,0.1994,0.1976,0.1975,0.1975,0,0,0,0,0,0,0,0,0,0,0,0,0,0.2036,0.2049,0.2018,0.2011,0.201,0.2006,0.2006,0.2006,0.1994,0.1994,0.1994,0.1993,0.1976,0.1975,0.1975,0.1974,0,0,0.1973,0.1973,0,0,0,0,0,0,0,0,0.2037,0.2035,0.2012,0.2011,0.2011,0.2002,0.2011,0.1995,0.1994,0.1999,0.1994,0.1993,0.1985,0.1983,0.198,0.1973,0.1972,0.1973,0.1973,0.1972,0.1972,0,0,0,0,0,0,0,0.2038,0.2035,0.2012,0.2012,0.2011,0.2016,0.2013,0.2008,0.1992,0.1999,0.1998,0.1998,0.1984,0.1981,0.198,0.1972,0.1973,0.1973,0.1972,0.1972,0.197,0.197,0,0,0,0,0,0,0.204,0.2036,0.2013,0.2012,0.2025,0.2015,0.2012,0.2004,0.1992,0.199,0.1998,0.1998,0.1982,0.1981,0.1979,0.1981,0.1972,0.1972,0.1972,0.197,0.197,0.1971,0,0,0,0,0,0,0.204,0.2037,0.2013,0.2025,0.2022,0.2015,0.2006,0.2004,0.2001,0.1992,0.199,0.1997,0.1982,0.198,0.1976,0.198,0.1972,0.1971,0.197,0.197,0.197,0.1982,0,0,0,0,0,0,0.2041,0.2037,0.2034,0.2025,0.2022,0.2011,0.2006,0.2004,0.2002,0.2001,0.199,0.1989,0.1982,0.1977,0.1975,0.1979,0.1971,0.1969,0.197,0.197,0.1981,0.1982,0.1984,0,0,0,0,0,0.2042,0.2035,0.2033,0.2031,0.2016,0.2011,0.201,0.2004,0.2002,0.2001,0.1995,0.1989,0.1979,0.1976,0.1974,0.1978,0.1969,0.197,0.197,0.198,0.1982,0.1984,0,0,0,0,0,0,0.2048,0.2033,0.2031,0.202,0.2017,0.201,0.2008,0.2006,0.2,0.1999,0.199,0.1988,0.199,0.1982,0.1979,0.198,0.1974,0.1975,0.1982,0.1984,0.1986,0.2,0.197,0,0,0,0,0,0.2048,0.2037,0.203,0.2022,0.2021,0.2015,0.2014,0.201,0.2005,0.2002,0.1993,0.1989,0.1991,0.1985,0.1985,0.198,0.1987,0.1983,0.1984,0.1986,0.1997,0.201,0.2014,0.1973,0.1973,0.1973,0,0,0.2048,0.2039,0.2033,0.2023,0.2019,0.2017,0.2013,0.201,0.2012,0.2001,0.1996,0.1995,0.1993,0.1992,0.1992,0.1984,0.2,0.1986,0.1987,0.1999,0.2012,0.2016,0.2019,0.1973,0.1973,0.1973,0,0,0.2044,0.2035,0.2027,0.2024,0.202,0.2018,0.2019,0.2011,0.2012,0.201,0.2008,0.2011,0.2001,0.2005,0.2006,0.2015,0.2012,0.2009,0.2022,0.2034,0.2038,0.2041,0.205,0.2054,0.2004,0.2004,0.2004,0,0.2049,0.2033,0.2026,0.202,0.2019,0.202,0.2017,0.202,0.2012,0.2018,0.2011,0.2015,0.2013,0.2023,0.2027,0.202,0.2023,0.2014,0.2036,0.204,0.2043,0.2052,0.2056,0.2004,0.2004,0.2004,0.2004,0,0.2039,0.2029,0.2025,0.2016,0.2016,0.2014,0.2018,0.202,0.2022,0.2027,0.2038,0.2035,0.2039,0.2038,0.2036,0.2056,0.2049,0.2041,0.2033,0.2048,0.2056,0.206,0.2005,0.2005,0.2005,0.2005,0,0,0.2046,0.2022,0.2022,0.2017,0.2014,0.2013,0.2022,0.2032,0.2045,0.2043,0.2059,0.2065,0.2067,0.207,0.2065,0.2076,0.2101,0.2068,0.2068,0.2078,0.2126,0.2122,0.2126,0.2092,0.2093,0.2094,0.212,0,0.2043,0.2025,0.2018,0.2013,0.2008,0.2013,0.2022,0.2034,0.2048,0.2064,0.2075,0.2088,0.2078,0.2082,0.2092,0.2108,0.2114,0.2095,0.2109,0.211,0.2106,0.2132,0.2177,0.2204,0.2125,0.2125,0.2126,0,0.2039,0.2026,0.2015,0.201,0.201,0.2012,0.2033,0.204,0.207,0.2083,0.2099,0.2108,0.2133,0.2117,0.2148,0.2134,0.2133,0.2138,0.2139,0.2138,0.2115,0.2177,0.2215,0.2161,0.2133,0.2132,0.2132,0,0.2045,0.2029,0.2018,0.2015,0.2011,0.2016,0.2022,0.2047,0.2064,0.2099,0.2121,0.214,0.2163,0.2167,0.2181,0.2165,0.2213,0.219,0.2182,0.2181,0.2225,0.2227,0.2218,0.2205,0.2205,0.2205,0.2205,0,0.2046,0.204,0.202,0.2015,0.2015,0.2016,0.2033,0.2048,0.2079,0.2105,0.2129,0.216,0.2179,0.2204,0.2198,0.2214,0.2225,0.2199,0.2194,0.2229,0.223,0.219,0.2092,0.2206,0.2206,0.2206,0.2206,0,0.2054,0.2039,0.2027,0.2017,0.2016,0.2018,0.2031,0.2045,0.2082,0.212,0.2133,0.219,0.2234,0.2244,0.2268,0.2247,0.2183,0.2247,0.2287,0.2286,0.2216,0.2116,0.1884,0.1876,0.2246,0.2246,0.2246,0,0.2055,0.2047,0.2027,0.2019,0.2013,0.2015,0.2018,0.2043,0.2065,0.2137,0.2158,0.2221,0.2266,0.2308,0.2313,0.2313,0.2185,0.2316,0.2292,0.2231,0.2115,0.1893,0.1889,0.2355,0.2356,0.2357,0.2357,0,0.2058,0.2049,0.2037,0.2017,0.2011,0.2002,0.2013,0.203,0.207,0.2119,0.2185,0.2231,0.231,0.2356,0.2364,0.2359,0.22,0.233,0.2268,0.2202,0.1957,0.1944,0.2307,0.2365,0.2364,0.2364,0.2363,0.2363,0.2062,0.2051,0.203,0.2013,0.1998,0.1982,0.1975,0.2003,0.2038,0.2101,0.2175,0.2254,0.2378,0.2421,0.2388,0.2374,0.2217,0.2331,0.2216,0.1999,0.1972,0.2342,0.2386,0.2385,0.2385,0.2384,0.2384,0,0.2065,0.2046,0.2027,0.1993,0.1965,0.1966,0.1964,0.1963,0.1994,0.2095,0.2161,0.2296,0.2365,0.2413,0.2428,0.231,0.2186,0.2205,0.1951,0.1965,0.2347,0.2344,0.2379,0.2379,0.2379,0.2379,0.2379,0.2379,0.2063,0.2042,0.2027,0.197,0.1944,0.1905,0.1899,0.1907,0.1969,0.2046,0.212,0.2185,0.2228,0.2179,0.2135,0.2133,0.1933,0.177,0.1701,0.2036,0.204,0.2044,0.2026,0.1993,0.1992,0.1366,0.136,0.1356]},{"header":{"parameterUnit":"m.s-1","parameterCategory":2,"la1":30.2991,"la2":30.254,"lo1":-89.0895,"lo2":-89.0444,"dy":0.0017,"dx":0.0017,"nx":28,"ny":28,"refTime":"2024-02-11T09:00:00:Z","depth":"0","parameterNumber":3,"parameterNumberName":"V-component_of_CURRENTS"},"data":[0,0,0,0,0,0,0,0,0,0,0,0,0,0,0,0,0,0,0,0,0,0,0,0,0,0,0,0,0,0,0,0,0,0,0,0,0,0,0,0,0,0,0,0,0,0,0,0,0,0,0,0,0,0,0,0,0,0,0.0524,0.0524,0,0.0548,0.0548,0.0548,0.0548,0.0548,0.0547,0.0547,0.054,0.054,0.054,0,0,0,0,0,0,0,0,0,0,0,0,0,0.0462,0.0463,0.0524,0.0524,0.0525,0.0548,0.0548,0.0548,0.0548,0.0548,0.0547,0.0547,0.054,0.054,0.054,0,0,0,0,0,0,0,0,0,0,0,0,0,0.0487,0.0463,0.0524,0.0528,0.0529,0.0548,0.0548,0.0548,0.0548,0.0548,0.0547,0.0547,0.054,0.054,0.054,0.0547,0,0,0.054,0.054,0,0,0,0,0,0,0,0,0.0485,0.0489,0.0527,0.0528,0.0529,0.0545,0.0524,0.0547,0.0548,0.054,0.0547,0.0547,0.054,0.054,0.0544,0.0547,0.0547,0.054,0.054,0.054,0.054,0,0,0,0,0,0,0,0.0484,0.0488,0.0532,0.0527,0.0528,0.0523,0.0526,0.0528,0.054,0.054,0.0541,0.0545,0.054,0.0544,0.0544,0.0547,0.054,0.054,0.054,0.054,0.0546,0.0546,0,0,0,0,0,0,0.0484,0.0486,0.0532,0.0533,0.0507,0.0525,0.0528,0.0539,0.0541,0.0541,0.0545,0.0545,0.0544,0.0544,0.0544,0.0554,0.054,0.054,0.054,0.0546,0.0546,0.0546,0,0,0,0,0,0,0.0483,0.0488,0.0531,0.051,0.0516,0.0526,0.0539,0.054,0.0546,0.0545,0.0544,0.0549,0.0544,0.0544,0.0548,0.0553,0.054,0.054,0.0545,0.0546,0.0546,0.0573,0,0,0,0,0,0,0.0481,0.0488,0.0494,0.0511,0.0517,0.0545,0.0539,0.0541,0.0549,0.0549,0.0548,0.0547,0.0544,0.0548,0.0548,0.0553,0.0541,0.0545,0.0546,0.0546,0.0572,0.0574,0.0576,0,0,0,0,0,0.0479,0.0491,0.0494,0.05,0.0526,0.0546,0.0549,0.0554,0.055,0.0556,0.0554,0.0547,0.0549,0.0548,0.0548,0.0554,0.0545,0.0546,0.0546,0.0571,0.0574,0.0576,0,0,0,0,0,0,0.0464,0.0492,0.0497,0.0516,0.0531,0.0546,0.0554,0.0556,0.0561,0.0559,0.0553,0.0553,0.0558,0.0551,0.0551,0.0554,0.0544,0.0544,0.0563,0.0566,0.0568,0.0575,0.0541,0,0,0,0,0,0.0465,0.0484,0.0505,0.052,0.0529,0.0541,0.0549,0.0554,0.0561,0.0563,0.0561,0.0558,0.0559,0.0559,0.0558,0.0564,0.0551,0.0565,0.0567,0.0568,0.0573,0.0558,0.0559,0.0547,0.0547,0.0547,0,0,0.0462,0.0481,0.049,0.0518,0.053,0.055,0.0545,0.0561,0.0576,0.0562,0.0575,0.0567,0.0562,0.0568,0.0569,0.0564,0.0565,0.0569,0.057,0.0574,0.0559,0.056,0.0561,0.0547,0.0547,0.0547,0,0,0.047,0.0485,0.0504,0.0521,0.0545,0.0555,0.0561,0.0577,0.0583,0.0596,0.0587,0.0583,0.0587,0.0583,0.0583,0.0594,0.0577,0.059,0.0607,0.0592,0.0593,0.0594,0.0578,0.0577,0.059,0.059,0.059,0,0.0463,0.0496,0.051,0.0535,0.0554,0.0559,0.0584,0.0593,0.0606,0.0613,0.0604,0.0603,0.0595,0.0603,0.0605,0.06,0.0587,0.06,0.0595,0.0596,0.0596,0.0579,0.0578,0.0592,0.0592,0.0592,0.0591,0,0.0489,0.0515,0.0529,0.0565,0.0584,0.0606,0.0625,0.0636,0.064,0.0645,0.0651,0.0637,0.0636,0.0629,0.0623,0.0622,0.061,0.0601,0.0591,0.0599,0.058,0.0578,0.0594,0.0593,0.0593,0.0593,0,0,0.0479,0.0536,0.0542,0.0571,0.0605,0.0627,0.0651,0.0679,0.0699,0.069,0.0708,0.0696,0.0679,0.0676,0.0659,0.0643,0.063,0.0624,0.0622,0.061,0.0595,0.0608,0.0607,0.0619,0.0619,0.0619,0.0581,0,0.0497,0.0553,0.0575,0.0626,0.0658,0.0677,0.0703,0.0724,0.0735,0.0749,0.0726,0.0732,0.07,0.0698,0.0677,0.0649,0.0627,0.0641,0.0587,0.0585,0.0598,0.0606,0.0726,0.0704,0.0579,0.0578,0.0578,0,0.0518,0.0557,0.0612,0.0674,0.0689,0.0715,0.0766,0.0791,0.0806,0.0813,0.0804,0.0783,0.0762,0.0731,0.0678,0.0688,0.0643,0.0613,0.061,0.0613,0.0595,0.0676,0.0705,0.0729,0.0575,0.0575,0.0576,0,0.0519,0.0585,0.0633,0.0655,0.0717,0.0745,0.0776,0.0807,0.0843,0.085,0.087,0.083,0.0823,0.076,0.0693,0.0685,0.0631,0.0613,0.0577,0.0577,0.0665,0.0673,0.0717,0.0567,0.0567,0.0567,0.0567,0,0.0537,0.0576,0.064,0.0669,0.0731,0.0764,0.0825,0.0849,0.0889,0.0944,0.09,0.0931,0.083,0.0787,0.0711,0.0646,0.0642,0.0585,0.0572,0.0677,0.0686,0.0698,0.0698,0.0565,0.0566,0.0566,0.0566,0,0.0534,0.0575,0.0636,0.0708,0.0737,0.078,0.0869,0.0917,0.0944,0.1015,0.1019,0.1005,0.0963,0.0855,0.076,0.0685,0.0659,0.0579,0.0707,0.071,0.0702,0.0699,0.0722,0.0824,0.0543,0.0543,0.0543,0,0.0537,0.0569,0.0661,0.0709,0.0746,0.0819,0.088,0.0938,0.1003,0.1078,0.1121,0.1091,0.1111,0.0966,0.0837,0.0706,0.0701,0.0695,0.07,0.0726,0.0712,0.0714,0.0801,0.0824,0.0827,0.0829,0.083,0,0.0543,0.0575,0.0629,0.0729,0.0804,0.0896,0.099,0.1056,0.1141,0.1217,0.1321,0.1339,0.1225,0.1176,0.0968,0.0868,0.0803,0.073,0.0738,0.0924,0.0951,0.1036,0.0813,0.0848,0.0846,0.0845,0.0844,0.0843,0.0544,0.0584,0.0662,0.0758,0.0851,0.0979,0.1076,0.1194,0.1329,0.1501,0.1501,0.1645,0.1554,0.1317,0.1112,0.0945,0.0935,0.0931,0.0919,0.0912,0.1041,0.0847,0.0875,0.0873,0.0872,0.0871,0.087,0,0.055,0.0609,0.0693,0.0821,0.0934,0.0985,0.116,0.1294,0.1488,0.1691,0.1825,0.2048,0.1867,0.1647,0.138,0.1204,0.1173,0.1123,0.1182,0.126,0.1078,0.1123,0.1232,0.1232,0.1232,0.1232,0.1232,0.1232,0.0557,0.0634,0.0688,0.0872,0.0972,0.1156,0.1273,0.149,0.1701,0.2085,0.2354,0.2507,0.2533,0.1841,0.1493,0.139,0.1408,0.1327,0.1328,0.1208,0.119,0.1173,0.1216,0.1343,0.1343,0.161,0.1612,0.1613]}],[{"header":{"parameterUnit":"m.s-1","parameterCategory":2,"la1":30.2991,"la2":30.254,"lo1":-89.0895,"lo2":-89.0444,"dy":0.0017,"dx":0.0017,"nx":28,"ny":28,"refTime":"2024-02-11T09:00:00:Z","depth":"2","parameterNumber":2,"parameterNumberName":"U-component_of_CURRENTS"},"data":[0,0,0,0,0,0,0,0,0,0,0,0,0,0,0,0,0,0,0,0,0,0,0,0,0,0,0,0,0,0,0,0,0,0,0,0,0,0,0,0,0,0,0,0,0,0,0,0,0,0,0,0,0,0,0,0,0,0,0.1943,0.1943,0,0.1931,0.1931,0.1931,0.192,0.192,0.192,0.192,0.1903,0.1903,0.1903,0,0,0,0,0,0,0,0,0,0,0,0,0,0.1975,0.1974,0.1943,0.1943,0.1943,0.1931,0.1931,0.1931,0.192,0.192,0.192,0.192,0.1904,0.1903,0.1903,0,0,0,0,0,0,0,0,0,0,0,0,0,0.1961,0.1974,0.1943,0.1937,0.1936,0.1931,0.1931,0.1931,0.192,0.192,0.192,0.192,0.1904,0.1903,0.1903,0.19,0,0,0.1901,0.19,0,0,0,0,0,0,0,0,0.1962,0.196,0.1938,0.1937,0.1937,0.1928,0.1936,0.192,0.192,0.1925,0.192,0.192,0.1912,0.1911,0.1907,0.1899,0.1898,0.1901,0.19,0.19,0.19,0,0,0,0,0,0,0,0.1963,0.196,0.1937,0.1938,0.1937,0.1941,0.1939,0.1933,0.1918,0.1925,0.1924,0.1925,0.1911,0.1908,0.1907,0.1898,0.1901,0.19,0.19,0.1899,0.1896,0.1897,0,0,0,0,0,0,0.1965,0.1961,0.1938,0.1937,0.1951,0.1941,0.1938,0.193,0.1918,0.1917,0.1925,0.1924,0.1909,0.1907,0.1906,0.1908,0.19,0.1899,0.1899,0.1896,0.1896,0.1897,0,0,0,0,0,0,0.1966,0.1963,0.1938,0.195,0.1947,0.194,0.1931,0.193,0.1928,0.1918,0.1917,0.1925,0.1909,0.1907,0.1903,0.1907,0.1899,0.1898,0.1896,0.1896,0.1897,0.1909,0,0,0,0,0,0,0.1966,0.1963,0.1959,0.195,0.1947,0.1936,0.1931,0.193,0.1929,0.1928,0.1918,0.1916,0.1909,0.1904,0.1902,0.1906,0.1898,0.1895,0.1896,0.1896,0.1908,0.1909,0.1911,0,0,0,0,0,0.1968,0.1961,0.1959,0.1957,0.1941,0.1936,0.1935,0.193,0.1929,0.1928,0.1922,0.1916,0.1906,0.1903,0.1902,0.1906,0.1895,0.1896,0.1896,0.1907,0.1909,0.1911,0,0,0,0,0,0,0.1974,0.1959,0.1957,0.1946,0.1943,0.1935,0.1934,0.1932,0.1926,0.1926,0.1917,0.1915,0.1917,0.1909,0.1906,0.1907,0.1901,0.1901,0.191,0.1912,0.1913,0.1928,0.1897,0,0,0,0,0,0.1974,0.1963,0.1956,0.1948,0.1947,0.1942,0.194,0.1937,0.1931,0.1929,0.1921,0.1916,0.1918,0.1913,0.1912,0.1907,0.1913,0.1909,0.1911,0.1912,0.1923,0.1937,0.194,0.1899,0.1899,0.1899,0,0,0.1975,0.1965,0.196,0.1949,0.1946,0.1943,0.194,0.1937,0.1939,0.1928,0.1924,0.1923,0.192,0.1919,0.1918,0.1911,0.1926,0.1913,0.1914,0.1925,0.1938,0.1942,0.1945,0.1899,0.1899,0.1899,0,0,0.1971,0.1963,0.1955,0.1951,0.1947,0.1945,0.1946,0.1939,0.194,0.1938,0.1935,0.1939,0.1929,0.1932,0.1932,0.1942,0.1939,0.1936,0.1949,0.1961,0.1965,0.1968,0.1977,0.1981,0.1931,0.1931,0.1931,0,0.1977,0.196,0.1954,0.1948,0.1946,0.1947,0.1945,0.1947,0.1939,0.1945,0.1939,0.1943,0.194,0.1949,0.1954,0.1946,0.195,0.1941,0.1963,0.1967,0.197,0.1979,0.1983,0.1931,0.1931,0.1931,0.1931,0,0.1967,0.1957,0.1953,0.1944,0.1944,0.1941,0.1944,0.1947,0.195,0.1954,0.1965,0.1962,0.1966,0.1965,0.1963,0.1982,0.1977,0.1968,0.1959,0.1975,0.1983,0.1988,0.1932,0.1932,0.1932,0.1932,0,0,0.1974,0.195,0.195,0.1945,0.1941,0.194,0.1948,0.1958,0.1971,0.1969,0.1985,0.1991,0.1994,0.1996,0.1992,0.2002,0.2028,0.1995,0.1995,0.2006,0.2053,0.2049,0.2053,0.202,0.2021,0.2021,0.2048,0,0.1971,0.1954,0.1945,0.194,0.1934,0.1939,0.1948,0.196,0.1973,0.1989,0.2,0.2013,0.2004,0.2009,0.2018,0.2035,0.2041,0.2022,0.2036,0.2037,0.2032,0.2059,0.1838,0.1843,0.2052,0.2053,0.2054,0,0.1968,0.1955,0.1943,0.1937,0.1937,0.1939,0.1958,0.1966,0.1994,0.2008,0.2024,0.2033,0.2058,0.2044,0.2074,0.2061,0.2061,0.2066,0.2066,0.2065,0.2041,0.1862,0.1844,0.2061,0.206,0.206,0.2059,0,0.1975,0.1958,0.1947,0.1943,0.1938,0.1943,0.1948,0.1973,0.1989,0.2024,0.2046,0.2065,0.2089,0.2093,0.2108,0.2092,0.214,0.2116,0.2108,0.2107,0.1925,0.1908,0.2132,0.2132,0.2132,0.2132,0.2132,0,0.1976,0.197,0.1949,0.1944,0.1944,0.1945,0.1961,0.1975,0.2006,0.2031,0.2055,0.2086,0.2105,0.213,0.2125,0.2141,0.2152,0.2125,0.212,0.1924,0.1907,0.2099,0.2095,0.2133,0.2133,0.2133,0.2133,0,0.1986,0.197,0.1958,0.1947,0.1946,0.1948,0.196,0.1974,0.201,0.2047,0.2061,0.2116,0.216,0.217,0.2194,0.2173,0.2179,0.2174,0.1948,0.1918,0.2131,0.2127,0.2172,0.2172,0.2172,0.2172,0.2172,0,0.1987,0.1979,0.1959,0.195,0.1945,0.1947,0.1949,0.1973,0.1994,0.2064,0.2085,0.2146,0.2181,0.2223,0.2155,0.2136,0.2203,0.1966,0.1906,0.2148,0.2138,0.2134,0.213,0.1656,0.1652,0.1649,0.1646,0,0.1991,0.1983,0.197,0.195,0.1944,0.1934,0.1944,0.196,0.1998,0.2035,0.2099,0.2134,0.2147,0.2034,0.2015,0.1976,0.1953,0.1902,0.2195,0.1703,0.167,0.1658,0.1669,0.1616,0.1619,0.1621,0.1623,0.1624,0.1996,0.1985,0.1965,0.1949,0.1933,0.1915,0.1907,0.1884,0.19,0.1879,0.2007,0.1954,0.1948,0.1794,0.1722,0.1646,0.1806,0.1726,0.1732,0.1742,0.17,0.1672,0.1609,0.1612,0.1615,0.1617,0.1619,0,0.1966,0.1982,0.1964,0.1929,0.1858,0.1901,0.1896,0.18,0.175,0.1738,0.1733,0.1542,0.1468,0.1466,0.1282,0.1294,0.1219,0.1266,0.1143,0.1175,0.1204,0.1129,0.089,0.0887,0.0885,0.0883,0,0,0.1955,0.1919,0.1903,0.1823,0.1829,0.1706,0.1695,0.1566,0.1487,0.1345,0.1285,0.135,0.1425,0.1124,0.109,0.0968,0.106,0.0916,0.1503,0.1391,0.1416,0.1475,0.14,0,0,0,0,0]},{"header":{"parameterUnit":"m.s-1","parameterCategory":2,"la1":30.2991,"la2":30.254,"lo1":-89.0895,"lo2":-89.0444,"dy":0.0017,"dx":0.0017,"nx":28,"ny":28,"refTime":"2024-02-11T09:00:00:Z","depth":"2","parameterNumber":3,"parameterNumberName":"V-component_of_CURRENTS"},"data":[0,0,0,0,0,0,0,0,0,0,0,0,0,0,0,0,0,0,0,0,0,0,0,0,0,0,0,0,0,0,0,0,0,0,0,0,0,0,0,0,0,0,0,0,0,0,0,0,0,0,0,0,0,0,0,0,0,0,0.0515,0.0516,0,0.0539,0.0539,0.0539,0.0539,0.0539,0.0538,0.0538,0.0531,0.0531,0.0531,0,0,0,0,0,0,0,0,0,0,0,0,0,0.0454,0.0456,0.0515,0.0516,0.0516,0.0539,0.0539,0.0539,0.0539,0.0539,0.0538,0.0538,0.0531,0.0531,0.0531,0,0,0,0,0,0,0,0,0,0,0,0,0,0.0479,0.0456,0.0515,0.0519,0.052,0.0539,0.0539,0.0539,0.0539,0.0539,0.0538,0.0538,0.0531,0.0531,0.0531,0.0538,0,0,0.0532,0.0532,0,0,0,0,0,0,0,0,0.0477,0.0481,0.0518,0.0519,0.052,0.0536,0.0515,0.0538,0.0539,0.0531,0.0538,0.0538,0.0531,0.0531,0.0535,0.0538,0.0538,0.0532,0.0532,0.0532,0.0532,0,0,0,0,0,0,0,0.0476,0.048,0.0524,0.0519,0.052,0.0515,0.0518,0.0519,0.0531,0.0532,0.0532,0.0536,0.0531,0.0535,0.0535,0.0538,0.0532,0.0532,0.0532,0.0532,0.0537,0.0537,0,0,0,0,0,0,0.0476,0.0479,0.0523,0.0524,0.0499,0.0516,0.052,0.0531,0.0532,0.0532,0.0536,0.0536,0.0535,0.0535,0.0535,0.0545,0.0532,0.0532,0.0532,0.0537,0.0537,0.0537,0,0,0,0,0,0,0.0475,0.048,0.0522,0.0502,0.0507,0.0518,0.053,0.0531,0.0537,0.0536,0.0536,0.0541,0.0535,0.0535,0.0539,0.0545,0.0532,0.0532,0.0537,0.0537,0.0537,0.0565,0,0,0,0,0,0,0.0473,0.048,0.0486,0.0503,0.0508,0.0537,0.0531,0.0532,0.054,0.054,0.054,0.0539,0.0535,0.0539,0.0539,0.0545,0.0532,0.0537,0.0537,0.0537,0.0564,0.0566,0.0568,0,0,0,0,0,0.0471,0.0483,0.0486,0.0492,0.0518,0.0537,0.054,0.0545,0.0541,0.0548,0.0546,0.0539,0.054,0.054,0.0539,0.0545,0.0536,0.0537,0.0537,0.0563,0.0565,0.0567,0,0,0,0,0,0,0.0457,0.0485,0.0489,0.0507,0.0522,0.0538,0.0545,0.0547,0.0552,0.055,0.0545,0.0544,0.0549,0.0543,0.0542,0.0546,0.0535,0.0536,0.0555,0.0557,0.0559,0.0566,0.0532,0,0,0,0,0,0.0458,0.0476,0.0497,0.0512,0.0521,0.0533,0.054,0.0545,0.0553,0.0555,0.0553,0.0549,0.0551,0.055,0.055,0.0555,0.0542,0.0556,0.0558,0.056,0.0565,0.055,0.0551,0.0538,0.0538,0.0538,0,0,0.0454,0.0474,0.0482,0.051,0.0522,0.0542,0.0536,0.0552,0.0567,0.0553,0.0566,0.0558,0.0554,0.056,0.0561,0.0555,0.0556,0.056,0.0562,0.0566,0.055,0.0552,0.0553,0.0538,0.0538,0.0538,0,0,0.0463,0.0477,0.0496,0.0514,0.0537,0.0547,0.0553,0.0569,0.0575,0.0588,0.0579,0.0575,0.0578,0.0575,0.0574,0.0586,0.0568,0.0582,0.0599,0.0584,0.0586,0.0586,0.057,0.0569,0.0582,0.0582,0.0582,0,0.0456,0.0489,0.0503,0.0528,0.0546,0.0551,0.0576,0.0585,0.0598,0.0605,0.0595,0.0595,0.0587,0.0595,0.0597,0.0592,0.0579,0.0592,0.0588,0.0588,0.0588,0.0571,0.057,0.0584,0.0584,0.0583,0.0583,0,0.0482,0.0508,0.0522,0.0558,0.0576,0.0599,0.0617,0.0629,0.0633,0.0637,0.0643,0.0629,0.0628,0.0622,0.0615,0.0614,0.0602,0.0593,0.0583,0.0591,0.0573,0.0571,0.0586,0.0585,0.0585,0.0584,0,0,0.0472,0.0529,0.0535,0.0564,0.0598,0.062,0.0644,0.0671,0.0692,0.0683,0.0701,0.0689,0.0672,0.0669,0.0652,0.0636,0.0623,0.0617,0.0615,0.0603,0.0589,0.06,0.0599,0.0612,0.0612,0.0612,0.0574,0,0.0491,0.0546,0.0569,0.0619,0.0651,0.067,0.0696,0.0717,0.0728,0.0742,0.0719,0.0725,0.0693,0.0691,0.067,0.0642,0.062,0.0635,0.058,0.0578,0.059,0.0598,0.0592,0.0559,0.0572,0.0571,0.0571,0,0.0512,0.0551,0.0606,0.0667,0.0682,0.0709,0.0759,0.0784,0.0799,0.0806,0.0797,0.0776,0.0755,0.0724,0.0671,0.0682,0.0637,0.0606,0.0604,0.0605,0.0587,0.0553,0.0555,0.0568,0.0568,0.0568,0.0568,0,0.0513,0.0579,0.0627,0.0648,0.0711,0.0739,0.0769,0.08,0.0836,0.0843,0.0862,0.0823,0.0816,0.0753,0.0686,0.0678,0.0624,0.0606,0.057,0.057,0.055,0.0549,0.056,0.056,0.056,0.056,0.056,0,0.0532,0.057,0.0634,0.0663,0.0725,0.0757,0.0819,0.0843,0.0882,0.0937,0.0893,0.0923,0.0823,0.078,0.0704,0.0638,0.0635,0.0577,0.0564,0.0559,0.0559,0.0556,0.0556,0.0559,0.0559,0.0559,0.056,0,0.0528,0.0569,0.063,0.0702,0.0731,0.0774,0.0863,0.091,0.0937,0.1007,0.1011,0.0996,0.0954,0.0847,0.0751,0.0677,0.0601,0.0571,0.0573,0.0561,0.0549,0.055,0.0533,0.0534,0.0534,0.0534,0.0534,0,0.0532,0.0564,0.0656,0.0703,0.074,0.0813,0.0874,0.0932,0.0996,0.1069,0.1111,0.1081,0.1095,0.095,0.0796,0.0657,0.0626,0.0554,0.0542,0.0559,0.0547,0.0549,0.055,0.0518,0.0518,0.0518,0.0517,0,0.0538,0.057,0.0624,0.0723,0.0798,0.089,0.0983,0.1048,0.1132,0.1202,0.1302,0.1315,0.1178,0.1045,0.0827,0.0721,0.0576,0.0551,0.0564,0.0536,0.0544,0.0533,0.0535,0.0517,0.0517,0.0517,0.0517,0.0517,0.0539,0.0579,0.0657,0.0752,0.0846,0.0972,0.1068,0.1164,0.1289,0.1407,0.1425,0.1448,0.1266,0.1006,0.0811,0.0589,0.0617,0.0527,0.0527,0.0527,0.0543,0.0552,0.0529,0.0529,0.0529,0.0529,0.0529,0,0.0545,0.0604,0.0688,0.0816,0.0924,0.0979,0.1152,0.1248,0.1405,0.1489,0.1571,0.1413,0.1244,0.1027,0.0719,0.0548,0.0504,0.0469,0.0456,0.0458,0.046,0.0471,0.0439,0.0438,0.0437,0.0436,0,0,0.0552,0.0628,0.0682,0.086,0.0961,0.113,0.1245,0.1383,0.1482,0.1581,0.1595,0.1567,0.1326,0.1077,0.0823,0.0643,0.0586,0.0588,0.0682,0.07,0.0704,0.0516,0.054,0,0,0,0,0]}],[{"header":{"parameterUnit":"m.s-1","parameterCategory":2,"la1":30.2991,"la2":30.254,"lo1":-89.0895,"lo2":-89.0444,"dy":0.0017,"dx":0.0017,"nx":28,"ny":28,"refTime":"2024-02-11T09:00:00:Z","depth":"4","parameterNumber":2,"parameterNumberName":"U-component_of_CURRENTS"},"data":[0,0,0,0,0,0,0,0,0,0,0,0,0,0,0,0,0,0,0,0,0,0,0,0,0,0,0,0,0,0,0,0,0,0,0,0,0,0,0,0,0,0,0,0,0,0,0,0,0,0,0,0,0,0,0,0,0,0,0.0863,0.0864,0,0.0895,0.0895,0.0895,0.0931,0.0932,0.0932,0.0933,0.0987,0.0987,0.0988,0,0,0,0,0,0,0,0,0,0,0,0,0,0.085,0.0849,0.0863,0.0864,0.0864,0.0895,0.0895,0.0895,0.0931,0.0932,0.0932,0.0933,0.0986,0.0987,0.0988,0,0,0,0,0,0,0,0,0,0,0,0,0,0.0865,0.0849,0.0863,0.0886,0.0888,0.0895,0.0895,0.0895,0.0931,0.0932,0.0933,0.0934,0.0986,0.0987,0.0988,0.0979,0,0,0.0992,0.0993,0,0,0,0,0,0,0,0,0.0864,0.0865,0.0882,0.0884,0.0887,0.091,0.091,0.0925,0.0931,0.0914,0.0933,0.0934,0.0963,0.0966,0.0969,0.0981,0.0984,0.0993,0.0993,0.0994,0.0994,0,0,0,0,0,0,0,0.0863,0.0864,0.0875,0.0883,0.0886,0.09,0.0903,0.0913,0.0933,0.0916,0.0918,0.0923,0.0964,0.0967,0.097,0.0984,0.0993,0.0994,0.0995,0.0995,0.1064,0.1065,0,0,0,0,0,0,0.0858,0.0863,0.0874,0.0876,0.0878,0.09,0.0903,0.0902,0.0933,0.0938,0.0922,0.0924,0.0965,0.0969,0.0973,0.1028,0.0994,0.0995,0.0996,0.1063,0.1064,0.1065,0,0,0,0,0,0,0.0858,0.0859,0.0873,0.0871,0.0874,0.0899,0.0897,0.0902,0.0928,0.0937,0.0943,0.0946,0.0966,0.0971,0.1003,0.1028,0.0996,0.0997,0.1062,0.1063,0.1065,0.1097,0,0,0,0,0,0,0.0857,0.0858,0.0867,0.0871,0.0874,0.089,0.0896,0.0902,0.0928,0.0932,0.096,0.0964,0.0967,0.1001,0.1005,0.1029,0.0998,0.106,0.1063,0.1064,0.1095,0.11,0.1104,0,0,0,0,0,0.0856,0.086,0.0867,0.087,0.0881,0.0891,0.0894,0.0914,0.0929,0.0941,0.0964,0.0965,0.1016,0.1003,0.1007,0.1032,0.106,0.1062,0.1064,0.1093,0.1099,0.1104,0,0,0,0,0,0,0.0862,0.0864,0.0872,0.0878,0.0891,0.0897,0.0913,0.0926,0.0952,0.0965,0.0975,0.0981,0.1021,0.102,0.1006,0.1059,0.1039,0.1042,0.106,0.1066,0.107,0.1077,0.0999,0,0,0,0,0,0.0865,0.0869,0.0876,0.0884,0.0891,0.0907,0.0918,0.0932,0.095,0.0964,0.0982,0.1005,0.1028,0.1043,0.1059,0.1084,0.1086,0.1105,0.1109,0.1113,0.1121,0.1143,0.115,0.1073,0.1073,0.1073,0,0,0.0871,0.0873,0.0877,0.0887,0.0899,0.091,0.0917,0.0939,0.0959,0.0964,0.1006,0.1023,0.1039,0.1071,0.1089,0.1078,0.1135,0.1116,0.1119,0.1126,0.1146,0.1154,0.116,0.1075,0.1075,0.1074,0,0,0.0874,0.0886,0.0889,0.0899,0.092,0.0929,0.094,0.0959,0.0983,0.1017,0.1031,0.1065,0.1095,0.1112,0.1124,0.1163,0.1159,0.1171,0.1199,0.122,0.1226,0.1232,0.1237,0.1243,0.1171,0.1172,0.1172,0,0.0887,0.0885,0.0894,0.0901,0.0914,0.0939,0.0951,0.0975,0.1007,0.1029,0.1038,0.1098,0.1115,0.1154,0.1174,0.1174,0.118,0.1175,0.1225,0.1231,0.1236,0.1241,0.1247,0.1173,0.1173,0.1173,0.1173,0,0.0883,0.0894,0.09,0.0915,0.0932,0.0948,0.0976,0.1007,0.1041,0.1064,0.112,0.1144,0.118,0.1193,0.12,0.1248,0.1238,0.1229,0.121,0.1246,0.1248,0.1254,0.1176,0.1175,0.1175,0.1174,0,0,0.088,0.0894,0.0899,0.091,0.0942,0.0953,0.0996,0.1035,0.1072,0.1114,0.1161,0.1208,0.1229,0.1245,0.1258,0.1282,0.1326,0.1279,0.1279,0.1281,0.1367,0.1263,0.1259,0.1328,0.1329,0.1331,0.1351,0,0.088,0.0887,0.09,0.0925,0.0933,0.0972,0.1009,0.1053,0.1099,0.1152,0.1194,0.1245,0.1246,0.1277,0.1301,0.133,0.1345,0.1321,0.1335,0.1335,0.1236,0.1263,0.1335,0.1355,0.1356,0.1357,0.1358,0,0.0871,0.0877,0.0892,0.0929,0.094,0.0969,0.1035,0.107,0.1146,0.1188,0.1242,0.1277,0.1337,0.1328,0.1382,0.137,0.1374,0.1383,0.1384,0.1281,0.1242,0.1313,0.1368,0.1367,0.1367,0.1366,0.1365,0,0.0848,0.0876,0.0888,0.0899,0.0943,0.0977,0.1016,0.1087,0.1129,0.122,0.1265,0.1324,0.1376,0.1394,0.142,0.1412,0.1466,0.1449,0.1351,0.1343,0.1416,0.141,0.1474,0.1474,0.1473,0.1473,0.1473,0,0.0829,0.0845,0.0885,0.0891,0.0928,0.0972,0.1029,0.1081,0.1162,0.1212,0.1286,0.133,0.14,0.1435,0.1437,0.1411,0.1476,0.136,0.1344,0.1428,0.1423,0.1419,0.1413,0.1474,0.1474,0.1474,0.1474,0,0.0794,0.0819,0.0836,0.0889,0.0914,0.0944,0.1029,0.1067,0.1158,0.1227,0.1263,0.136,0.1406,0.1441,0.1481,0.1427,0.1414,0.1382,0.1471,0.1458,0.1272,0.1267,0.1274,0.1271,0.1268,0.1266,0.1264,0,0.0772,0.0775,0.0825,0.084,0.087,0.0925,0.0962,0.1056,0.1097,0.1226,0.1251,0.1339,0.1386,0.1358,0.1399,0.138,0.1358,0.1334,0.1301,0.127,0.1254,0.1253,0.1253,0.1259,0.1258,0.1257,0.1257,0,0.0726,0.0751,0.0761,0.0791,0.0831,0.0864,0.093,0.0955,0.1062,0.116,0.1211,0.1234,0.1279,0.1298,0.1294,0.1277,0.1343,0.1304,0.1309,0.1278,0.1251,0.1238,0.1241,0.1247,0.1248,0.1249,0.125,0,0.0695,0.0686,0.0704,0.0725,0.0769,0.0784,0.083,0.0882,0.0936,0.1084,0.1096,0.1185,0.1274,0.1243,0.1239,0.1216,0.119,0.1135,0.1149,0.116,0.1111,0.1059,0.0985,0,0,0,0,0,0.0655,0.0628,0.0637,0.0646,0.0688,0.0713,0.0795,0.0847,0.0961,0.0966,0.103,0.1065,0.1079,0.1121,0.1071,0.1167,0.1181,0.1101,0.1122,0.1191,0.1202,0.1153,0,0,0,0,0,0,0.0623,0.0617,0.0604,0.0577,0.0575,0.0609,0.0657,0.0735,0.0748,0.0873,0.089,0.0979,0.101,0.1091,0.1045,0.1053,0.1038,0.1155,0.1151,0.1184,0.1195,0.1204,0.1157,0,0,0,0,0]},{"header":{"parameterUnit":"m.s-1","parameterCategory":2,"la1":30.2991,"la2":30.254,"lo1":-89.0895,"lo2":-89.0444,"dy":0.0017,"dx":0.0017,"nx":28,"ny":28,"refTime":"2024-02-11T09:00:00:Z","depth":"4","parameterNumber":3,"parameterNumberName":"V-component_of_CURRENTS"},"data":[0,0,0,0,0,0,0,0,0,0,0,0,0,0,0,0,0,0,0,0,0,0,0,0,0,0,0,0,0,0,0,0,0,0,0,0,0,0,0,0,0,0,0,0,0,0,0,0,0,0,0,0,0,0,0,0,0,0,0.0373,0.0374,0,0.0396,0.0396,0.0396,0.0406,0.0406,0.0406,0.0406,0.0418,0.0418,0.0418,0,0,0,0,0,0,0,0,0,0,0,0,0,0.0329,0.033,0.0373,0.0374,0.0374,0.0396,0.0396,0.0396,0.0406,0.0406,0.0406,0.0406,0.0417,0.0418,0.0418,0,0,0,0,0,0,0,0,0,0,0,0,0,0.0349,0.033,0.0373,0.0382,0.0383,0.0396,0.0396,0.0396,0.0406,0.0406,0.0406,0.0406,0.0417,0.0418,0.0418,0.0422,0,0,0.042,0.042,0,0,0,0,0,0,0,0,0.0348,0.0351,0.038,0.0381,0.0382,0.0398,0.0384,0.0404,0.0406,0.0397,0.0406,0.0406,0.041,0.0411,0.0416,0.0422,0.0423,0.042,0.042,0.042,0.042,0,0,0,0,0,0,0,0.0347,0.035,0.0382,0.038,0.0382,0.038,0.0383,0.0388,0.0403,0.0398,0.0399,0.0401,0.0411,0.0415,0.0416,0.0423,0.042,0.042,0.042,0.0421,0.0443,0.0443,0,0,0,0,0,0,0.0345,0.0349,0.0381,0.0383,0.0365,0.0381,0.0385,0.0393,0.0404,0.0405,0.0401,0.0402,0.0414,0.0415,0.0416,0.044,0.042,0.0421,0.0421,0.0442,0.0443,0.0443,0,0,0,0,0,0,0.0344,0.0348,0.0381,0.0366,0.037,0.0382,0.0392,0.0394,0.0405,0.0406,0.0408,0.0411,0.0414,0.0416,0.0428,0.0439,0.0421,0.0421,0.0442,0.0442,0.0443,0.0474,0,0,0,0,0,0,0.0343,0.0347,0.0355,0.0366,0.0371,0.0395,0.0392,0.0394,0.0406,0.0407,0.0415,0.0416,0.0414,0.0428,0.0429,0.044,0.0422,0.0442,0.0442,0.0443,0.0473,0.0476,0.0478,0,0,0,0,0,0.0341,0.0352,0.0355,0.0359,0.038,0.0396,0.0398,0.0406,0.0406,0.0415,0.042,0.0416,0.0432,0.0429,0.043,0.0441,0.0441,0.0442,0.0443,0.0472,0.0475,0.0478,0,0,0,0,0,0,0.0335,0.0354,0.0358,0.0374,0.0387,0.0397,0.0407,0.0411,0.0422,0.0424,0.0423,0.0424,0.0439,0.0434,0.0431,0.0448,0.0434,0.0435,0.0456,0.0459,0.0462,0.0468,0.0422,0,0,0,0,0,0.0338,0.0353,0.0367,0.0381,0.0388,0.0398,0.0406,0.0413,0.0422,0.0428,0.0432,0.0435,0.0441,0.0446,0.045,0.0462,0.0449,0.0468,0.047,0.0473,0.0478,0.0465,0.0467,0.0445,0.0445,0.0445,0,0,0.0338,0.0352,0.036,0.0381,0.0391,0.0409,0.0403,0.042,0.0437,0.0427,0.045,0.0446,0.0446,0.046,0.0466,0.0459,0.0471,0.0474,0.0476,0.048,0.0466,0.0468,0.047,0.0446,0.0446,0.0446,0,0,0.0349,0.0361,0.0378,0.0392,0.0412,0.042,0.0426,0.0441,0.0452,0.0471,0.0466,0.047,0.0481,0.0483,0.0485,0.0504,0.0485,0.0502,0.0523,0.0511,0.0513,0.0514,0.0497,0.0497,0.0504,0.0504,0.0504,0,0.0349,0.0376,0.0385,0.0406,0.0423,0.0427,0.045,0.0461,0.0478,0.0488,0.0483,0.0496,0.0493,0.0509,0.0515,0.0511,0.0497,0.0513,0.0515,0.0516,0.0517,0.0499,0.0498,0.0506,0.0505,0.0505,0.0505,0,0.0373,0.0397,0.0409,0.044,0.0457,0.0478,0.0495,0.0511,0.0519,0.0526,0.0543,0.0537,0.0543,0.0541,0.0536,0.0543,0.0529,0.052,0.0508,0.0521,0.0501,0.05,0.0508,0.0507,0.0507,0.0507,0,0,0.0368,0.0417,0.0423,0.0449,0.048,0.0499,0.0527,0.0555,0.0576,0.0579,0.0601,0.0602,0.059,0.0591,0.058,0.057,0.0562,0.055,0.0548,0.0534,0.053,0.0502,0.0498,0.0551,0.0551,0.0551,0.0512,0,0.0387,0.0435,0.0455,0.0504,0.0532,0.0551,0.0579,0.0602,0.0615,0.0634,0.0624,0.0636,0.0612,0.0615,0.0601,0.0576,0.056,0.0573,0.0517,0.0516,0.0491,0.0496,0.0551,0.051,0.051,0.051,0.051,0,0.0405,0.0439,0.0491,0.0548,0.0562,0.0591,0.0641,0.0667,0.0686,0.0696,0.0697,0.0682,0.0674,0.0648,0.0606,0.0615,0.0576,0.0549,0.0546,0.051,0.0486,0.0494,0.0507,0.0507,0.0507,0.0507,0.0508,0,0.0405,0.0466,0.0512,0.0531,0.059,0.0622,0.0653,0.0685,0.0717,0.0732,0.0748,0.0725,0.0722,0.0673,0.0613,0.061,0.0558,0.0546,0.0482,0.0479,0.0502,0.0501,0.051,0.051,0.051,0.0511,0.0511,0,0.0419,0.0457,0.0519,0.0546,0.0606,0.0639,0.0699,0.0724,0.0762,0.0799,0.0777,0.0792,0.0728,0.0689,0.0626,0.0549,0.0565,0.0487,0.0469,0.0515,0.0516,0.0501,0.05,0.0509,0.0509,0.051,0.051,0,0.0412,0.0452,0.051,0.0582,0.0611,0.0653,0.0737,0.0776,0.0805,0.0853,0.0859,0.0844,0.0792,0.0716,0.0635,0.0571,0.0497,0.0463,0.0518,0.0503,0.0422,0.0424,0.0391,0.039,0.0389,0.0388,0.0387,0,0.0414,0.0443,0.0533,0.0574,0.0613,0.0684,0.0737,0.0794,0.0838,0.0885,0.0906,0.0871,0.0846,0.0714,0.0628,0.0498,0.0474,0.0428,0.0425,0.0425,0.0411,0.0414,0.0417,0.0385,0.0385,0.0385,0.0385,0,0.0415,0.0448,0.0498,0.0584,0.0651,0.0729,0.0807,0.0841,0.0905,0.0929,0.0941,0.0878,0.0817,0.0711,0.0605,0.0513,0.0455,0.0416,0.0418,0.0414,0.0417,0.0405,0.0409,0.0381,0.0381,0.0382,0.0382,0,0.0415,0.0448,0.0517,0.0593,0.0676,0.0758,0.0801,0.0862,0.0909,0.0955,0.0956,0.0897,0.0866,0.0719,0.0628,0.0527,0.0498,0.0456,0.0455,0.0458,0.0483,0.0497,0.0472,0,0,0,0,0,0.0413,0.0456,0.0524,0.0615,0.0697,0.0755,0.0844,0.0882,0.0939,0.0947,0.0954,0.0897,0.0767,0.0718,0.0612,0.0596,0.0473,0.0466,0.0422,0.036,0.0365,0.038,0,0,0,0,0,0,0.0415,0.0476,0.0518,0.0621,0.0686,0.0787,0.0848,0.0889,0.0896,0.0929,0.0863,0.085,0.0724,0.0822,0.0602,0.0575,0.0527,0.0414,0.0411,0.0358,0.0362,0.0365,0.0382,0,0,0,0,0]}]]